• In Belgien
  • Länderverzeichnis
  • Für 7 Tage
  • Wassertemperatur
  • Satellitenkarten
  • Wetterkarte
  • Widgets
  • user-avatar
    Anmelden

    Stündliche Wetter Dinant

    Heute, 21 August, Dienstag

    Zeit Temperatur Niederschläge Wind Luftdruck Luftfeuchtigkeit
    00:00 +17°C° 0 mm 0 m/S 751 mmHg 92%
    01:00 +17°C° 0 mm 0 m/S 751 mmHg 92%
    02:00 +16°C° 0 mm 0 m/S 751 mmHg 93%
    03:00 +16°C° 0 mm 0 m/S 751 mmHg 93%
    04:00 +16°C° 0 mm 0 m/S 751 mmHg 92%
    05:00 +17°C° 0 mm 0 m/S 751 mmHg 91%
    06:00 +17°C° 0 mm 0 m/S 751 mmHg 90%
    07:00 +19°C° 0 mm 0 m/S 751 mmHg 84%
    08:00 +23°C° 0 mm 1 m/S 751 mmHg 77%
    09:00 +24°C° 0 mm 1 m/S 751 mmHg 71%
    10:00 +25°C° 0,1 mm 1 m/S 751 mmHg 66%
    11:00 +26°C° 0,1 mm 1 m/S 751 mmHg 61%
    12:00 +27°C° 0,1 mm 1 m/S 751 mmHg 57%
    13:00 +27°C° 0,1 mm 1 m/S 751 mmHg 56%
    14:00 +27°C° 0,1 mm 1 m/S 750 mmHg 56%
    15:00 +28°C° 0,1 mm 1 m/S 750 mmHg 56%
    16:00 +26°C° 0 mm 1 m/S 750 mmHg 61%
    17:00 +25°C° 0 mm 1 m/S 750 mmHg 67%
    18:00 +24°C° 0 mm 1 m/S 750 mmHg 73%
    19:00 +23°C° 0 mm 1 m/S 750 mmHg 78%
    20:00 +21°C° 0 mm 1 m/S 750 mmHg 83%
    21:00 +20°C° 0 mm 1 m/S 750 mmHg 88%
    22:00 +20°C° 0 mm 1 m/S 750 mmHg 89%
    23:00 +19°C° 0 mm 1 m/S 750 mmHg 89%

    Morgen, 22 August, Mittwoch

    Zeit Temperatur Niederschläge Wind Luftdruck Luftfeuchtigkeit
    00:00 +17°C° 0 mm 0 m/S 750 mmHg 90%
    01:00 +17°C° 0 mm 0 m/S 750 mmHg 90%
    02:00 +17°C° 0 mm 0 m/S 749 mmHg 91%
    03:00 +16°C° 0 mm 0 m/S 749 mmHg 91%
    04:00 +17°C° 0 mm 0 m/S 749 mmHg 89%
    05:00 +18°C° 0 mm 0 m/S 749 mmHg 88%
    06:00 +18°C° 0 mm 0 m/S 749 mmHg 86%
    07:00 +22°C° 0 mm 1 m/S 749 mmHg 79%
    08:00 +24°C° 0 mm 1 m/S 749 mmHg 72%
    09:00 +26°C° 0 mm 1 m/S 749 mmHg 65%
    10:00 +26°C° 0 mm 1 m/S 749 mmHg 63%
    11:00 +27°C° 0 mm 2 m/S 749 mmHg 61%
    12:00 +27°C° 0 mm 2 m/S 749 mmHg 58%
    13:00 +28°C° 0 mm 2 m/S 749 mmHg 57%
    14:00 +28°C° 0 mm 2 m/S 748 mmHg 56%
    15:00 +28°C° 0 mm 3 m/S 748 mmHg 55%
    16:00 +27°C° 0 mm 2 m/S 748 mmHg 60%
    17:00 +26°C° 0 mm 2 m/S 748 mmHg 65%
    18:00 +25°C° 0 mm 1 m/S 748 mmHg 70%
    19:00 +23°C° 0 mm 1 m/S 748 mmHg 76%
    20:00 +21°C° 0 mm 1 m/S 748 mmHg 81%
    21:00 +20°C° 0 mm 1 m/S 749 mmHg 86%
    22:00 +19°C° 0 mm 1 m/S 749 mmHg 88%
    23:00 +17°C° 0 mm 0 m/S 748 mmHg 89%

    übermorgen, 23 August, Donnerstag

    Zeit Temperatur Niederschläge Wind Luftdruck Luftfeuchtigkeit
    00:00 +17°C° 0 mm 0 m/S 748 mmHg 91%
    01:00 +16°C° 0 mm 0 m/S 748 mmHg 91%
    02:00 +16°C° 0 mm 0 m/S 748 mmHg 92%
    03:00 +18°C° 0 mm 1 m/S 748 mmHg 93%
    04:00 +18°C° 0 mm 1 m/S 748 mmHg 92%
    05:00 +19°C° 0 mm 1 m/S 748 mmHg 91%
    06:00 +19°C° 0 mm 1 m/S 748 mmHg 90%
    07:00 +21°C° 0 mm 1 m/S 748 mmHg 82%
    08:00 +23°C° 0 mm 2 m/S 748 mmHg 75%
    09:00 +24°C° 0 mm 2 m/S 748 mmHg 67%
    10:00 +25°C° 0 mm 3 m/S 747 mmHg 64%
    11:00 +26°C° 0 mm 3 m/S 747 mmHg 60%
    12:00 +27°C° 0 mm 3 m/S 747 mmHg 57%
    13:00 +27°C° 0,1 mm 4 m/S 747 mmHg 58%
    14:00 +27°C° 0,1 mm 4 m/S 747 mmHg 59%
    15:00 +27°C° 0,1 mm 4 m/S 746 mmHg 60%
    16:00 +25°C° 0,4 mm 3 m/S 746 mmHg 69%
    17:00 +22°C° 0,4 mm 3 m/S 746 mmHg 78%
    18:00 +21°C° 0,4 mm 3 m/S 746 mmHg 87%
    19:00 +20°C° 0,1 mm 2 m/S 746 mmHg 90%
    20:00 +19°C° 0,1 mm 2 m/S 747 mmHg 93%
    21:00 +18°C° 0,1 mm 2 m/S 747 mmHg 95%
    22:00 +17°C° 0 mm 2 m/S 747 mmHg 96%
    23:00 +17°C° 0 mm 2 m/S 746 mmHg 96%

    24 August, Freitag

    Zeit Temperatur Niederschläge Wind Luftdruck Luftfeuchtigkeit
    00:00 +16°C° 0 mm 2 m/S 746 mmHg 96%
    01:00 +16°C° 0 mm 2 m/S 746 mmHg 96%
    02:00 +15°C° 0 mm 2 m/S 746 mmHg 96%
    03:00 +14°C° 0 mm 2 m/S 746 mmHg 96%
    04:00 +13°C° 0 mm 3 m/S 746 mmHg 95%
    05:00 +13°C° 0 mm 3 m/S 746 mmHg 95%
    06:00 +13°C° 0 mm 3 m/S 746 mmHg 94%
    07:00 +14°C° 0,1 mm 3 m/S 746 mmHg 89%
    08:00 +16°C° 0,1 mm 3 m/S 746 mmHg 84%
    09:00 +17°C° 0,1 mm 4 m/S 747 mmHg 79%
    10:00 +18°C° 0,2 mm 4 m/S 746 mmHg 74%
    11:00 +18°C° 0,2 mm 4 m/S 746 mmHg 69%
    12:00 +19°C° 0,2 mm 5 m/S 746 mmHg 64%
    13:00 +19°C° 0,1 mm 5 m/S 746 mmHg 61%
    14:00 +17°C° 0,1 mm 5 m/S 746 mmHg 57%
    15:00 +17°C° 0,1 mm 5 m/S 746 mmHg 54%
    16:00 +17°C° 0 mm 4 m/S 746 mmHg 57%
    17:00 +15°C° 0 mm 4 m/S 747 mmHg 59%
    18:00 +14°C° 0 mm 3 m/S 747 mmHg 62%
    19:00 +13°C° 0 mm 3 m/S 747 mmHg 66%
    20:00 +13°C° 0 mm 2 m/S 747 mmHg 71%
    21:00 +10°C° 0 mm 2 m/S 747 mmHg 75%
    22:00 +9°C° 0 mm 2 m/S 747 mmHg 78%
    23:00 +9°C° 0 mm 2 m/S 747 mmHg 82%

    25 August, Samstag

    Zeit Temperatur Niederschläge Wind Luftdruck Luftfeuchtigkeit
    00:00 +8°C° 0 mm 2 m/S 747 mmHg 85%
    01:00 +8°C° 0 mm 2 m/S 747 mmHg 87%
    02:00 +7°C° 0 mm 2 m/S 747 mmHg 89%
    03:00 +7°C° 0 mm 2 m/S 746 mmHg 91%
    04:00 +8°C° 0 mm 2 m/S 746 mmHg 89%
    05:00 +8°C° 0 mm 2 m/S 746 mmHg 88%
    06:00 +9°C° 0 mm 2 m/S 746 mmHg 87%
    07:00 +10°C° 0,2 mm 3 m/S 746 mmHg 81%
    08:00 +12°C° 0,2 mm 3 m/S 746 mmHg 75%
    09:00 +14°C° 0,2 mm 3 m/S 746 mmHg 69%
    10:00 +16°C° 0,4 mm 3 m/S 746 mmHg 65%
    11:00 +15°C° 0,4 mm 4 m/S 746 mmHg 61%
    12:00 +17°C° 0,4 mm 4 m/S 746 mmHg 57%
    13:00 +17°C° 0,4 mm 4 m/S 745 mmHg 57%
    14:00 +17°C° 0,4 mm 4 m/S 745 mmHg 57%
    15:00 +17°C° 0,4 mm 4 m/S 745 mmHg 57%
    16:00 +16°C° 0,3 mm 3 m/S 745 mmHg 64%
    17:00 +14°C° 0,3 mm 3 m/S 745 mmHg 71%
    18:00 +13°C° 0,3 mm 2 m/S 745 mmHg 78%
    19:00 +12°C° 0,1 mm 2 m/S 746 mmHg 82%
    20:00 +10°C° 0,1 mm 2 m/S 746 mmHg 86%
    21:00 +10°C° 0,1 mm 1 m/S 746 mmHg 90%
    22:00 +9°C° 0 mm 2 m/S 746 mmHg 91%
    23:00 +8°C° 0 mm 2 m/S 747 mmHg 93%

    26 August, Sonntag

    Zeit Temperatur Niederschläge Wind Luftdruck Luftfeuchtigkeit
    00:00 +8°C° 0 mm 2 m/S 747 mmHg 94%
    01:00 +8°C° 0 mm 2 m/S 747 mmHg 94%
    02:00 +8°C° 0 mm 2 m/S 747 mmHg 95%
    03:00 +8°C° 0 mm 1 m/S 747 mmHg 95%
    04:00 +9°C° 0 mm 1 m/S 748 mmHg 94%
    05:00 +9°C° 0 mm 1 m/S 748 mmHg 94%
    06:00 +10°C° 0 mm 1 m/S 748 mmHg 93%
    07:00 +12°C° 0,1 mm 2 m/S 749 mmHg 85%
    08:00 +14°C° 0,1 mm 2 m/S 749 mmHg 77%
    09:00 +15°C° 0,1 mm 2 m/S 749 mmHg 69%
    10:00 +16°C° 0,2 mm 3 m/S 749 mmHg 63%
    11:00 +17°C° 0,2 mm 3 m/S 749 mmHg 57%
    12:00 +18°C° 0,2 mm 3 m/S 749 mmHg 51%
    13:00 +19°C° 0,1 mm 3 m/S 749 mmHg 50%
    14:00 +19°C° 0,1 mm 3 m/S 749 mmHg 49%
    15:00 +19°C° 0,1 mm 3 m/S 749 mmHg 48%
    16:00 +18°C° 0,1 mm 3 m/S 749 mmHg 54%
    17:00 +17°C° 0,1 mm 2 m/S 749 mmHg 60%
    18:00 +15°C° 0,1 mm 2 m/S 750 mmHg 66%
    19:00 +14°C° 0 mm 1 m/S 750 mmHg 70%
    20:00 +12°C° 0 mm 1 m/S 750 mmHg 74%
    21:00 +11°C° 0 mm 1 m/S 750 mmHg 78%
    22:00 +10°C° 0 mm 1 m/S 750 mmHg 80%
    23:00 +10°C° 0 mm 1 m/S 751 mmHg 81%
    Mehr zeigen